DW2728 Weather Reports


time (UTC)temp
C
wind
direction
speed
KPH
gust
KPH
rain 1hr
cm
rain 24hr
cm
rain mn
cm
humidity
%
barometer
mb
20260906202803 34 185 17.7 43.5 0.00 0.03 0.03 41 1005.8
20260906201803 33 181 12.9 35.4 0.00 0.03 0.03 42 1005.9
20260906200803 33 173 16.1 43.5 0.00 0.03 0.03 43 1005.9
20260906195803 33 190 24.1 38.6 0.00 0.03 0.03 45 1005.9
20260906194803 33 174 17.7 30.6 0.00 0.03 0.03 45 1006.3
20260906193803 32 172 14.5 32.2 0.00 0.03 0.03 46 1006.5
20260906192803 32 174 14.5 32.2 0.00 0.03 0.03 49 1006.6
20260906191824 32 154 17.7 30.6 0.00 0.03 0.03 48 1006.7
20260906190803 32 156 19.3 32.2 0.00 0.03 0.03 49 1006.8
20260906185803 31 154 17.7 27.4 0.00 0.03 0.03 53 1006.8
20260906184803 30 161 14.5 35.4 0.00 0.03 0.03 58 1007.3
20260906183803 30 144 25.7 40.2 0.00 0.03 0.03 60 1007.6
20260906182803 29 141 29.0 48.3 0.00 0.03 0.03 61 1007.8
20260906181803 28 139 25.7 43.5 0.00 0.03 0.03 63 1008.0
20260906180824 28 147 19.3 43.5 0.00 0.03 0.03 64 1008.1
20260906175803 27 146 22.5 40.2 0.00 0.03 0.03 66 1008.3
20260906174802 27 143 22.5 43.5 0.00 0.03 0.03 66 1008.4
20260906173803 27 156 17.7 40.2 0.00 0.03 0.03 64 1008.7
20260906172802 27 139 20.9 41.8 0.00 0.03 0.03 67 1008.9
20260906171803 27 143 24.1 37.0 0.00 0.03 0.03 67 1008.9
20260906170802 27 136 25.7 40.2 0.00 0.03 0.03 67 1009.1
20260906165803 27 133 12.9 27.4 0.00 0.03 0.03 70 1009.2
20260906164823 26 141 9.7 19.3 0.00 0.03 0.03 75 1009.3
20260906163803 25 153 9.7 24.1 0.00 0.03 0.03 75 1009.4
20260906162845 25 156 11.3 30.6 0.00 0.03 0.03 73 1009.1
20260906161803 26 151 19.3 29.0 0.00 0.03 0.03 69 1009.1
20260906160803 26 148 16.1 32.2 0.00 0.03 0.03 71 1008.8
20260906155802 25 154 17.7 32.2 0.00 0.03 0.03 72 1008.7
20260906154803 25 145 16.1 32.2 0.00 0.03 0.03 71 1008.9
20260906153803 26 153 17.7 27.4 0.00 0.03 0.03 70 1008.9
20260906152803 25 162 11.3 20.9 0.00 0.03 0.03 74 1009.2
20260906151802 24 173 8.0 20.9 0.00 0.03 0.03 80 1009.2
20260906150803 22 152 11.3 27.4 0.00 0.03 0.03 83 1009.2
20260906145804 22 129 17.7 29.0 0.00 0.03 0.03 82 1008.8
20260906144803 22 107 22.5 30.6 0.00 0.03 0.03 82 1009.0
20260906143802 22 120 11.3 24.1 0.00 0.03 0.03 83 1009.2
20260906142803 22 114 19.3 25.7 0.00 0.03 0.03 82 1009.5
20260906141823 22 117 12.9 25.7 0.00 0.03 0.03 81 1009.5
20260906140803 22 129 12.9 22.5 0.00 0.03 0.03 82 1009.3
20260906134803 22 100 17.7 24.1 0.00 0.03 0.03 85 1009.2
20260906133803 22 83 16.1 24.1 0.00 0.03 0.03 85 1009.3
20260906132802 22 91 19.3 27.4 0.00 0.03 0.03 85 1009.2
20260906131845 22 77 14.5 24.1 0.00 0.03 0.03 84 1009.1
20260906130803 22 71 11.3 19.3 0.00 0.03 0.03 84 1009.0
20260906125823 21 66 9.7 19.3 0.00 0.03 0.03 84 1008.6
20260906124803 21 61 11.3 17.7 0.00 0.03 0.03 85 1008.6
20260906123803 21 68 6.4 16.1 0.00 0.03 0.03 84 1008.5
20260906122824 21 45 9.7 16.1 0.00 0.03 0.03 85 1008.4
20260906121803 21 15 12.9 16.1 0.00 0.03 0.03 85 1008.3
20260906120803 21 12 11.3 14.5 0.00 0.03 0.03 84 1008.0
20260906115802 21 3 4.8 6.4 0.00 0.03 0.03 85 1007.7
20260906114803 21 45 4.8 8.0 0.00 0.03 0.03 85 1007.8
20260906113802 21 116 4.8 12.9 0.00 0.03 0.03 85 1007.7
20260906112803 21 124 8.0 12.9 0.00 0.03 0.03 85 1007.3
20260906111802 22 96 1.6 6.4 0.00 0.03 0.03 83 1006.8
20260906110803 22 283 1.6 6.4 0.00 0.03 0.03 82 1006.6
20260906105802 22 263 3.2 9.7 0.03 0.03 0.03 81 1006.4
20260906104803 21 239 6.4 11.3 0.03 0.03 0.03 83 1006.3
20260906103803 22 232 4.8 14.5 0.03 0.03 0.03 83 1006.2
20260906102803 22 218 12.9 22.5 0.03 0.03 0.03 81 1006.2
20260906100804 23 239 6.4 29.0 0.00 0.00 0.00 77 1006.2
20260906095804 22 211 24.1 33.8 0.00 0.00 0.00 76 1006.4
20260906094804 23 186 6.4 11.3 0.00 0.00 0.00 77 1006.6
20260906092846 23 171 3.2 14.5 0.00 0.00 0.00 74 1006.9
20260906091803 23 183 8.0 17.7 0.00 0.00 0.00 74 1006.9
20260906090825 23 197 12.9 19.3 0.00 0.00 0.00 75 1006.9
20260906085804 23 212 12.9 17.7 0.00 0.00 0.00 76 1006.8
20260906084804 23 229 8.0 14.5 0.00 0.00 0.00 77 1006.7
20260906082804 23 179 6.4 11.3 0.00 0.00 0.00 74 1006.5
20260906081803 23 186 4.8 9.7 0.00 0.00 0.00 74 1006.6
20260906080804 23 171 3.2 6.4 0.00 0.00 0.00 74 1006.7
20260906075804 23 186 3.2 9.7 0.00 0.00 0.00 73 1006.8
20260906074804 23 202 8.0 9.7 0.00 0.00 0.00 72 1007.0
20260906073803 24 162 1.6 8.0 0.00 0.00 0.00 71 1006.8
20260906072804 24 183 3.2 8.0 0.00 0.00 0.00 70 1006.9
20260906071803 24 185 3.2 9.7 0.00 0.00 0.00 70 1006.9
20260906070804 24 187 6.4 17.7 0.00 0.00 0.00 69 1006.7
20260906065803 24 201 14.5 20.9 0.00 0.00 0.00 70 1006.7
20260906064804 23 196 12.9 17.7 0.00 0.00 0.00 71 1006.8
20260906063804 23 181 8.0 12.9 0.00 0.00 0.00 72 1006.8
20260906062804 23 168 4.8 8.0 0.00 0.00 0.00 72 1007.0
20260906061805 23 171 4.8 8.0 0.00 0.00 0.00 73 1007.1
20260906060804 23 167 3.2 9.7 0.00 0.00 0.00 73 1006.8
20260906055804 23 160 4.8 9.7 0.00 0.00 0.00 74 1006.4
20260906054804 22 162 4.8 9.7 0.00 0.00 0.00 74 1006.6
20260906053804 22 163 4.8 9.7 0.00 0.00 0.00 73 1006.6
20260906052804 23 172 3.2 8.0 0.00 0.00 0.00 72 1006.4
20260906051803 23 173 3.2 6.4 0.00 0.00 0.00 71 1006.4
20260906050804 23 168 3.2 12.9 0.00 0.00 0.00 70 1006.3
20260906045804 24 176 4.8 16.1 0.00 0.00 0.00 69 1006.2
20260906044804 24 190 6.4 14.5 0.00 0.00 0.00 68 1006.1
20260906043803 24 224 8.0 12.9 0.00 0.00 0.00 67 1006.2
20260906042804 25 165 1.6 8.0 0.00 0.00 0.00 65 1006.0
20260906041803 25 160 4.8 9.7 0.00 0.00 0.00 63 1006.1
20260906040804 26 164 4.8 9.7 0.00 0.00 0.00 62 1006.2
20260906034804 26 181 4.8 12.9 0.00 0.00 0.00 62 1006.1
20260906033803 26 181 4.8 11.3 0.00 0.00 0.00 62 1006.1
20260906032804 26 177 6.4 14.5 0.00 0.00 0.00 61 1006.0
20260906031803 26 182 8.0 16.1 0.00 0.00 0.00 62 1006.1
20260906030825 26 182 4.8 11.3 0.00 0.00 0.00 62 1006.0
20260906025804 26 165 4.8 14.5 0.00 0.00 0.00 62 1006.0
20260906024803 26 172 4.8 14.5 0.00 0.00 0.00 63 1005.9
20260906023803 26 166 4.8 11.3 0.00 0.00 0.00 63 1005.8
20260906022804 26 149 8.0 14.5 0.00 0.00 0.00 62 1005.6
20260906021803 27 158 8.0 14.5 0.00 0.00 0.00 61 1005.3
20260906020804 27 159 8.0 17.7 0.00 0.00 0.00 61 1005.3
20260906015824 27 153 8.0 19.3 0.00 0.00 0.00 60 1005.2
20260906014804 27 153 9.7 19.3 0.00 0.00 0.00 60 1005.2
20260906013803 27 151 12.9 24.1 0.00 0.00 0.00 59 1004.9
20260906012804 28 155 11.3 29.0 0.00 0.00 0.00 58 1005.0
20260906011804 28 150 11.3 22.5 0.00 0.00 0.00 57 1004.7
20260906010825 28 154 12.9 29.0 0.00 0.00 0.00 56 1004.6
20260906005803 28 152 12.9 33.8 0.00 0.00 0.00 55 1004.7
20260906004804 28 147 19.3 37.0 0.00 0.00 0.00 54 1004.5
20260906003804 29 143 19.3 38.6 0.00 0.00 0.00 53 1004.6
20260906002804 30 144 20.9 38.6 0.00 0.00 0.00 52 1004.6
20260906001803 31 125 17.7 35.4 0.00 0.00 0.00 50 1004.6
20260906000804 32 142 17.7 33.8 0.00 0.00 0.00 47 1004.5
20260905235804 33 134 19.3 29.0 0.00 0.00 0.00 45 1004.3
20260905233803 34 180 11.3 17.7 0.00 0.00 0.00 40 1004.0
20260905232804 35 180 9.7 20.9 0.00 0.00 0.00 39 1003.9
20260905231824 35 172 9.7 27.4 0.00 0.00 0.00 38 1004.0
20260905230804 35 183 17.7 25.7 0.00 0.00 0.00 37 1003.8
20260905225803 35 174 8.0 29.0 0.00 0.00 0.00 38 1003.8
20260905224804 35 179 9.7 25.7 0.00 0.00 0.00 38 1003.7
20260905223824 35 171 8.0 22.5 0.00 0.00 0.00 38 1003.8
20260905222804 35 180 9.7 24.1 0.00 0.00 0.00 39 1003.7
20260905221804 35 182 11.3 29.0 0.00 0.00 0.00 38 1003.6
20260905220803 35 209 20.9 33.8 0.00 0.00 0.00 37 1003.7
20260905215804 35 169 8.0 17.7 0.00 0.00 0.00 40 1003.7
20260905214804 35 190 12.9 27.4 0.00 0.00 0.00 42 1003.7
20260905213804 35 171 8.0 27.4 0.00 0.00 0.00 41 1004.0
20260905212803 35 181 8.0 24.1 0.00 0.00 0.00 42 1004.1
20260905211804 35 187 16.1 29.0 0.00 0.00 0.00 42 1004.2
20260905210845 35 176 9.7 20.9 0.00 0.00 0.00 42 1004.4
20260905205804 34 203 17.7 27.4 0.00 0.00 0.00 42 1004.5
20260905204825 34 166 9.7 19.3 0.00 0.00 0.00 42 1004.6
20260905203824 34 184 11.3 32.2 0.00 0.00 0.00 44 1004.9